Year,Month,Day,Hour,Minute,Value (Times are PST for windgust in km/hr)
2002,12,13,00,00,4.70
2002,12,13,00,01,7.90
2002,12,13,00,02,4.70
2002,12,13,00,03,7.90
2002,12,13,00,04,7.90
2002,12,13,00,05,7.90
2002,12,13,00,06,7.90
2002,12,13,00,07,7.90
2002,12,13,00,08,4.70
2002,12,13,00,09,4.70
2002,12,13,00,10,4.70
2002,12,13,00,11,4.70
2002,12,13,00,12,3.20
2002,12,13,00,13,1.40
2002,12,13,00,14,1.40
2002,12,13,00,15,3.20
2002,12,13,00,16,1.40
2002,12,13,00,17,1.40
2002,12,13,00,18,3.20
2002,12,13,00,19,3.20
2002,12,13,00,20,3.20
2002,12,13,00,21,3.20
2002,12,13,00,22,3.20
2002,12,13,00,23,3.20
2002,12,13,00,24,1.40
2002,12,13,00,25,0.00
2002,12,13,00,26,0.00
2002,12,13,00,27,0.00
2002,12,13,00,28,0.00
2002,12,13,00,29,0.00
2002,12,13,00,30,0.00
2002,12,13,00,31,1.40
2002,12,13,00,32,1.40
2002,12,13,00,33,0.00
2002,12,13,00,34,0.00
2002,12,13,00,35,0.00
2002,12,13,00,36,0.00
2002,12,13,00,37,0.00
2002,12,13,00,38,0.00
2002,12,13,00,39,0.00
2002,12,13,00,40,0.00
2002,12,13,00,41,1.40
2002,12,13,00,42,1.40
2002,12,13,00,43,1.40
2002,12,13,00,44,1.40
2002,12,13,00,45,1.40
2002,12,13,00,46,3.20
2002,12,13,00,47,3.20
2002,12,13,00,48,3.20
2002,12,13,00,49,3.20
2002,12,13,00,50,3.20
2002,12,13,00,51,3.20
2002,12,13,00,52,0.00
2002,12,13,00,53,3.20
2002,12,13,00,54,3.20
2002,12,13,00,55,3.20
2002,12,13,00,56,3.20
2002,12,13,00,57,1.40
2002,12,13,00,58,1.40
2002,12,13,00,59,1.40
2002,12,13,01,00,1.40
2002,12,13,01,01,1.40
2002,12,13,01,02,1.40
2002,12,13,01,03,0.00
2002,12,13,01,04,0.00
2002,12,13,01,05,1.40
2002,12,13,01,06,0.00
2002,12,13,01,07,0.00
2002,12,13,01,08,0.00
2002,12,13,01,09,1.40
2002,12,13,01,10,0.00
2002,12,13,01,11,0.00
2002,12,13,01,12,1.40
2002,12,13,01,13,0.00
2002,12,13,01,14,0.00
2002,12,13,01,15,1.40
2002,12,13,01,16,3.20
2002,12,13,01,17,1.40
2002,12,13,01,18,1.40
2002,12,13,01,19,1.40
2002,12,13,01,20,1.40
2002,12,13,01,21,1.40
2002,12,13,01,22,1.40
2002,12,13,01,23,1.40
2002,12,13,01,24,0.00
2002,12,13,01,25,0.00
2002,12,13,01,26,0.00
2002,12,13,01,27,0.00
2002,12,13,01,28,0.00
2002,12,13,01,29,0.00
2002,12,13,01,30,0.00
2002,12,13,01,31,0.00
2002,12,13,01,32,0.00
2002,12,13,01,33,0.00
2002,12,13,01,34,0.00
2002,12,13,01,35,0.00
2002,12,13,01,36,1.40
2002,12,13,01,37,1.40
2002,12,13,01,38,3.20
2002,12,13,01,39,3.20
2002,12,13,01,40,3.20
2002,12,13,01,41,3.20
2002,12,13,01,42,1.40
2002,12,13,01,43,0.00
2002,12,13,01,44,0.00
2002,12,13,01,45,1.40
2002,12,13,01,46,3.20
2002,12,13,01,47,1.40
2002,12,13,01,48,3.20
2002,12,13,01,49,0.00
2002,12,13,01,50,0.00
2002,12,13,01,51,0.00
2002,12,13,01,52,1.40
2002,12,13,01,53,3.20
2002,12,13,01,54,4.70
2002,12,13,01,55,4.70
2002,12,13,01,56,4.70
2002,12,13,01,57,3.20
2002,12,13,01,58,1.40
2002,12,13,01,59,0.00
2002,12,13,02,00,1.40
2002,12,13,02,01,1.40
2002,12,13,02,02,3.20
2002,12,13,02,03,4.70
2002,12,13,02,04,4.70
2002,12,13,02,05,4.70
2002,12,13,02,06,7.90
2002,12,13,02,07,4.70
2002,12,13,02,08,4.70
2002,12,13,02,09,4.70
2002,12,13,02,10,3.20
2002,12,13,02,11,4.70
2002,12,13,02,12,4.70
2002,12,13,02,13,7.90
2002,12,13,02,14,4.70
2002,12,13,02,15,1.40
2002,12,13,02,16,3.20
2002,12,13,02,17,3.20
2002,12,13,02,18,1.40
2002,12,13,02,19,1.40
2002,12,13,02,20,1.40
2002,12,13,02,21,1.40
2002,12,13,02,22,0.00
2002,12,13,02,23,1.40
2002,12,13,02,24,0.00
2002,12,13,02,25,0.00
2002,12,13,02,26,1.40
2002,12,13,02,27,3.20
2002,12,13,02,28,4.70
2002,12,13,02,29,7.90
2002,12,13,02,30,4.70
2002,12,13,02,31,3.20
2002,12,13,02,32,3.20
2002,12,13,02,33,3.20
2002,12,13,02,34,1.40
2002,12,13,02,35,3.20
2002,12,13,02,36,1.40
2002,12,13,02,37,0.00
2002,12,13,02,38,1.40
2002,12,13,02,39,3.20
2002,12,13,02,40,4.70
2002,12,13,02,41,3.20
2002,12,13,02,42,1.40
2002,12,13,02,43,1.40
2002,12,13,02,44,4.70
2002,12,13,02,45,4.70
2002,12,13,02,46,3.20
2002,12,13,02,47,1.40
2002,12,13,02,48,1.40
2002,12,13,02,49,0.00
2002,12,13,02,50,0.00
2002,12,13,02,51,1.40
2002,12,13,02,52,1.40
2002,12,13,02,53,3.20
2002,12,13,02,54,3.20
2002,12,13,02,55,1.40
2002,12,13,02,56,0.00
2002,12,13,02,57,1.40
2002,12,13,02,58,1.40
2002,12,13,02,59,1.40
2002,12,13,03,00,0.00
2002,12,13,03,01,0.00
2002,12,13,03,02,0.00
2002,12,13,03,03,0.00
2002,12,13,03,04,0.00
2002,12,13,03,05,0.00
2002,12,13,03,06,0.00
2002,12,13,03,07,0.00
2002,12,13,03,08,0.00
2002,12,13,03,09,0.00
2002,12,13,03,10,1.40
2002,12,13,03,11,1.40
2002,12,13,03,12,3.20
2002,12,13,03,13,3.20
2002,12,13,03,14,1.40
2002,12,13,03,15,0.00
2002,12,13,03,16,1.40
2002,12,13,03,17,1.40
2002,12,13,03,18,1.40
2002,12,13,03,19,1.40
2002,12,13,03,20,3.20
2002,12,13,03,21,1.40
2002,12,13,03,22,1.40
2002,12,13,03,23,3.20
2002,12,13,03,24,3.20
2002,12,13,03,25,7.90
2002,12,13,03,26,7.90
2002,12,13,03,27,7.90
2002,12,13,03,28,7.90
2002,12,13,03,29,4.70
2002,12,13,03,30,4.70
2002,12,13,03,31,3.20
2002,12,13,03,32,3.20
2002,12,13,03,33,3.20
2002,12,13,03,34,3.20
2002,12,13,03,35,3.20
2002,12,13,03,36,4.70
2002,12,13,03,37,4.70
2002,12,13,03,38,4.70
2002,12,13,03,39,7.90
2002,12,13,03,40,13.00
2002,12,13,03,41,11.20
2002,12,13,03,42,9.70
2002,12,13,03,43,9.70
2002,12,13,03,44,4.70
2002,12,13,03,45,9.70
2002,12,13,03,46,9.70
2002,12,13,03,47,7.90
2002,12,13,03,48,4.70
2002,12,13,03,49,9.70
2002,12,13,03,50,7.90
2002,12,13,03,51,9.70
2002,12,13,03,52,7.90
2002,12,13,03,53,9.70
2002,12,13,03,54,9.70
2002,12,13,03,55,9.70
2002,12,13,03,56,9.70
2002,12,13,03,57,7.90
2002,12,13,03,58,4.70
2002,12,13,03,59,1.40
2002,12,13,04,00,1.40
2002,12,13,04,01,4.70
2002,12,13,04,02,3.20
2002,12,13,04,03,3.20
2002,12,13,04,04,4.70
2002,12,13,04,05,9.70
2002,12,13,04,06,13.00
2002,12,13,04,07,11.20
2002,12,13,04,08,16.20
2002,12,13,04,09,16.20
2002,12,13,04,10,13.00
2002,12,13,04,11,11.20
2002,12,13,04,12,13.00
2002,12,13,04,13,11.20
2002,12,13,04,14,11.20
2002,12,13,04,15,13.00
2002,12,13,04,16,16.20
2002,12,13,04,17,13.00
2002,12,13,04,18,11.20
2002,12,13,04,19,13.00
2002,12,13,04,20,11.20
2002,12,13,04,21,11.20
2002,12,13,04,22,11.20
2002,12,13,04,23,9.70
2002,12,13,04,24,9.70
2002,12,13,04,25,9.70
2002,12,13,04,26,4.70
2002,12,13,04,27,9.70
2002,12,13,04,28,7.90
2002,12,13,04,29,7.90
2002,12,13,04,30,9.70
2002,12,13,04,31,11.20
2002,12,13,04,32,11.20
2002,12,13,04,33,13.00
2002,12,13,04,34,13.00
2002,12,13,04,35,13.00
2002,12,13,04,36,11.20
2002,12,13,04,37,9.70
2002,12,13,04,38,13.00
2002,12,13,04,39,11.20
2002,12,13,04,40,9.70
2002,12,13,04,41,7.90
2002,12,13,04,42,11.20
2002,12,13,04,43,13.00
2002,12,13,04,44,13.00
2002,12,13,04,45,16.20
2002,12,13,04,46,13.00
2002,12,13,04,47,13.00
2002,12,13,04,48,13.00
2002,12,13,04,49,11.20
2002,12,13,04,50,13.00
2002,12,13,04,51,13.00
2002,12,13,04,52,11.20
2002,12,13,04,53,9.70
2002,12,13,04,54,9.70
2002,12,13,04,55,9.70
2002,12,13,04,56,9.70
2002,12,13,04,57,16.20
2002,12,13,04,58,13.00
2002,12,13,04,59,11.20
2002,12,13,05,00,9.70
2002,12,13,05,01,11.20
2002,12,13,05,02,13.00
2002,12,13,05,03,11.20
2002,12,13,05,04,9.70
2002,12,13,05,05,11.20
2002,12,13,05,06,11.20
2002,12,13,05,07,9.70
2002,12,13,05,08,13.00
2002,12,13,05,09,16.20
2002,12,13,05,10,16.20
2002,12,13,05,11,17.60
2002,12,13,05,12,13.00
2002,12,13,05,13,17.60
2002,12,13,05,14,16.20
2002,12,13,05,15,13.00
2002,12,13,05,16,13.00
2002,12,13,05,17,16.20
2002,12,13,05,18,11.20
2002,12,13,05,19,13.00
2002,12,13,05,20,19.40
2002,12,13,05,21,13.00
2002,12,13,05,22,16.20
2002,12,13,05,23,17.60
2002,12,13,05,24,11.20
2002,12,13,05,25,19.40
2002,12,13,05,26,11.20
2002,12,13,05,27,13.00
2002,12,13,05,28,13.00
2002,12,13,05,29,11.20
2002,12,13,05,30,13.00
2002,12,13,05,31,16.20
2002,12,13,05,32,13.00
2002,12,13,05,33,13.00
2002,12,13,05,34,7.90
2002,12,13,05,35,13.00
2002,12,13,05,36,17.60
2002,12,13,05,37,13.00
2002,12,13,05,38,11.20
2002,12,13,05,39,13.00
2002,12,13,05,40,9.70
2002,12,13,05,41,11.20
2002,12,13,05,42,13.00
2002,12,13,05,43,11.20
2002,12,13,05,44,11.20
2002,12,13,05,45,16.20
2002,12,13,05,46,13.00
2002,12,13,05,47,13.00
2002,12,13,05,48,19.40
2002,12,13,05,49,17.60
2002,12,13,05,50,17.60
2002,12,13,05,51,11.20
2002,12,13,05,52,19.40
2002,12,13,05,53,17.60
2002,12,13,05,54,16.20
2002,12,13,05,55,16.20
2002,12,13,05,56,16.20
2002,12,13,05,57,13.00
2002,12,13,05,58,13.00
2002,12,13,05,59,13.00
2002,12,13,06,00,17.60
2002,12,13,06,01,11.20
2002,12,13,06,02,20.90
2002,12,13,06,03,17.60
2002,12,13,06,04,11.20
2002,12,13,06,05,13.00
2002,12,13,06,06,13.00
2002,12,13,06,07,13.00
2002,12,13,06,08,17.60
2002,12,13,06,09,17.60
2002,12,13,06,10,19.40
2002,12,13,06,11,16.20
2002,12,13,06,12,19.40
2002,12,13,06,13,19.40
2002,12,13,06,14,17.60
2002,12,13,06,15,16.20
2002,12,13,06,16,16.20
2002,12,13,06,17,17.60
2002,12,13,06,18,19.40
2002,12,13,06,19,17.60
2002,12,13,06,20,16.20
2002,12,13,06,21,16.20
2002,12,13,06,22,17.60
2002,12,13,06,23,13.00
2002,12,13,06,24,16.20
2002,12,13,06,25,17.60
2002,12,13,06,26,16.20
2002,12,13,06,27,13.00
2002,12,13,06,28,13.00
2002,12,13,06,29,13.00
2002,12,13,06,30,13.00
2002,12,13,06,31,13.00
2002,12,13,06,32,13.00
2002,12,13,06,33,11.20
2002,12,13,06,34,9.70
2002,12,13,06,35,9.70
2002,12,13,06,36,16.20
2002,12,13,06,37,11.20
2002,12,13,06,38,16.20
2002,12,13,06,39,16.20
2002,12,13,06,40,17.60
2002,12,13,06,41,13.00
2002,12,13,06,42,16.20
2002,12,13,06,43,16.20
2002,12,13,06,44,11.20
2002,12,13,06,45,13.00
2002,12,13,06,46,16.20
2002,12,13,06,47,17.60
2002,12,13,06,48,9.70
2002,12,13,06,49,13.00
2002,12,13,06,50,16.20
2002,12,13,06,51,13.00
2002,12,13,06,52,13.00
2002,12,13,06,53,11.20
2002,12,13,06,54,13.00
2002,12,13,06,55,16.20
2002,12,13,06,56,9.70
2002,12,13,06,57,11.20
2002,12,13,06,58,13.00
2002,12,13,06,59,11.20
2002,12,13,07,00,17.60
2002,12,13,07,01,13.00
2002,12,13,07,02,11.20
2002,12,13,07,03,16.20
2002,12,13,07,04,11.20
2002,12,13,07,05,17.60
2002,12,13,07,06,11.20
2002,12,13,07,07,11.20
2002,12,13,07,08,16.20
2002,12,13,07,09,11.20
2002,12,13,07,10,13.00
2002,12,13,07,11,13.00
2002,12,13,07,12,16.20
2002,12,13,07,13,17.60
2002,12,13,07,14,16.20
2002,12,13,07,15,13.00
2002,12,13,07,16,17.60
2002,12,13,07,17,17.60
2002,12,13,07,18,16.20
2002,12,13,07,19,16.20
2002,12,13,07,20,16.20
2002,12,13,07,21,19.40
2002,12,13,07,22,17.60
2002,12,13,07,23,13.00
2002,12,13,07,24,19.40
2002,12,13,07,25,16.20
2002,12,13,07,26,17.60
2002,12,13,07,27,19.40
2002,12,13,07,28,20.90
2002,12,13,07,29,16.20
2002,12,13,07,30,13.00
2002,12,13,07,31,13.00
2002,12,13,07,32,16.20
2002,12,13,07,33,16.20
2002,12,13,07,34,22.70
2002,12,13,07,35,13.00
2002,12,13,07,36,17.60
2002,12,13,07,37,16.20
2002,12,13,07,38,19.40
2002,12,13,07,39,19.40
2002,12,13,07,40,17.60
2002,12,13,07,41,19.40
2002,12,13,07,42,19.40
2002,12,13,07,43,19.40
2002,12,13,07,44,19.40
2002,12,13,07,45,20.90
2002,12,13,07,46,16.20
2002,12,13,07,47,17.60
2002,12,13,07,48,17.60
2002,12,13,07,49,22.70
2002,12,13,07,50,16.20
2002,12,13,07,51,11.20
2002,12,13,07,52,9.70
2002,12,13,07,53,22.70
2002,12,13,07,54,17.60
2002,12,13,07,55,17.60
2002,12,13,07,56,16.20
2002,12,13,07,57,11.20
2002,12,13,07,58,17.60
2002,12,13,07,59,17.60
2002,12,13,08,00,16.20
2002,12,13,08,01,17.60
2002,12,13,08,02,13.00
2002,12,13,08,03,16.20
2002,12,13,08,04,11.20
2002,12,13,08,05,19.40
2002,12,13,08,06,11.20
2002,12,13,08,07,9.70
2002,12,13,08,08,9.70
2002,12,13,08,09,7.90
2002,12,13,08,10,11.20
2002,12,13,08,11,9.70
2002,12,13,08,12,4.70
2002,12,13,08,13,7.90
2002,12,13,08,14,7.90
2002,12,13,08,15,4.70
2002,12,13,08,16,3.20
2002,12,13,08,17,7.90
2002,12,13,08,18,3.20
2002,12,13,08,19,4.70
2002,12,13,08,20,3.20
2002,12,13,08,21,1.40
2002,12,13,08,22,3.20
2002,12,13,08,23,3.20
2002,12,13,08,24,1.40
2002,12,13,08,25,1.40
2002,12,13,08,26,1.40
2002,12,13,08,27,1.40
2002,12,13,08,28,3.20
2002,12,13,08,29,1.40
2002,12,13,08,30,1.40
2002,12,13,08,31,0.00
2002,12,13,08,32,1.40
2002,12,13,08,33,3.20
2002,12,13,08,34,1.40
2002,12,13,08,35,1.40
2002,12,13,08,36,4.70
2002,12,13,08,37,4.70
2002,12,13,08,38,9.70
2002,12,13,08,39,9.70
2002,12,13,08,40,9.70
2002,12,13,08,41,9.70
2002,12,13,08,42,7.90
2002,12,13,08,43,9.70
2002,12,13,08,44,9.70
2002,12,13,08,45,4.70
2002,12,13,08,46,9.70
2002,12,13,08,47,7.90
2002,12,13,08,48,7.90
2002,12,13,08,49,7.90
2002,12,13,08,50,7.90
2002,12,13,08,51,4.70
2002,12,13,08,52,7.90
2002,12,13,08,53,7.90
2002,12,13,08,54,11.20
2002,12,13,08,55,11.20
2002,12,13,08,56,9.70
2002,12,13,08,57,7.90
2002,12,13,08,58,11.20
2002,12,13,08,59,9.70
2002,12,13,09,00,9.70
2002,12,13,09,01,9.70
2002,12,13,09,02,7.90
2002,12,13,09,03,7.90
2002,12,13,09,04,9.70
2002,12,13,09,05,9.70
2002,12,13,09,06,7.90
2002,12,13,09,07,7.90
2002,12,13,09,08,4.70
2002,12,13,09,09,11.20
2002,12,13,09,10,9.70
2002,12,13,09,11,7.90
2002,12,13,09,12,7.90
2002,12,13,09,13,7.90
2002,12,13,09,14,3.20
2002,12,13,09,15,4.70
2002,12,13,09,16,4.70
2002,12,13,09,17,7.90
2002,12,13,09,18,7.90
2002,12,13,09,19,7.90
2002,12,13,09,20,4.70
2002,12,13,09,21,7.90
2002,12,13,09,22,4.70
2002,12,13,09,23,9.70
2002,12,13,09,24,9.70
2002,12,13,09,25,7.90
2002,12,13,09,26,7.90
2002,12,13,09,27,9.70
2002,12,13,09,28,4.70
2002,12,13,09,29,9.70
2002,12,13,09,30,4.70
2002,12,13,09,31,7.90
2002,12,13,09,32,4.70
2002,12,13,09,33,4.70
2002,12,13,09,34,4.70
2002,12,13,09,35,4.70
2002,12,13,09,36,9.70
2002,12,13,09,37,7.90
2002,12,13,09,38,9.70
2002,12,13,09,39,7.90
2002,12,13,09,40,7.90
2002,12,13,09,41,16.20
2002,12,13,09,42,7.90
2002,12,13,09,43,11.20
2002,12,13,09,44,11.20
2002,12,13,09,45,9.70
2002,12,13,09,46,17.60
2002,12,13,09,47,16.20
2002,12,13,09,48,11.20
2002,12,13,09,49,11.20
2002,12,13,09,50,9.70
2002,12,13,09,51,13.00
2002,12,13,09,52,13.00
2002,12,13,09,53,9.70
2002,12,13,09,54,11.20
2002,12,13,09,55,16.20
2002,12,13,09,56,11.20
2002,12,13,09,57,9.70
2002,12,13,09,58,11.20
2002,12,13,09,59,11.20
2002,12,13,10,00,11.20
2002,12,13,10,01,9.70
2002,12,13,10,02,9.70
2002,12,13,10,03,9.70
2002,12,13,10,04,7.90
2002,12,13,10,05,11.20
2002,12,13,10,06,9.70
2002,12,13,10,07,9.70
2002,12,13,10,08,9.70
2002,12,13,10,09,9.70
2002,12,13,10,10,9.70
2002,12,13,10,11,11.20
2002,12,13,10,12,7.90
2002,12,13,10,13,13.00
2002,12,13,10,14,11.20
2002,12,13,10,15,9.70
2002,12,13,10,16,11.20
2002,12,13,10,17,11.20
2002,12,13,10,18,7.90
2002,12,13,10,19,9.70
2002,12,13,10,20,7.90
2002,12,13,10,21,11.20
2002,12,13,10,22,13.00
2002,12,13,10,23,13.00
2002,12,13,10,24,17.60
2002,12,13,10,25,17.60
2002,12,13,10,26,17.60
2002,12,13,10,27,16.20
2002,12,13,10,28,16.20
2002,12,13,10,29,11.20
2002,12,13,10,30,20.90
2002,12,13,10,31,22.70
2002,12,13,10,32,16.20
2002,12,13,10,33,19.40
2002,12,13,10,34,19.40
2002,12,13,10,35,16.20
2002,12,13,10,36,22.70
2002,12,13,10,37,25.90
2002,12,13,10,38,19.40
2002,12,13,10,39,13.00
2002,12,13,10,40,16.20
2002,12,13,10,41,25.90
2002,12,13,10,42,25.90
2002,12,13,10,43,25.90
2002,12,13,10,44,22.70
2002,12,13,10,45,22.70
2002,12,13,10,46,19.40
2002,12,13,10,47,22.70
2002,12,13,10,48,20.90
2002,12,13,10,49,20.90
2002,12,13,10,50,20.90
2002,12,13,10,51,22.70
2002,12,13,10,52,27.40
2002,12,13,10,53,20.90
2002,12,13,10,54,22.70
2002,12,13,10,55,20.90
2002,12,13,10,56,20.90
2002,12,13,10,57,28.80
2002,12,13,10,58,28.80
2002,12,13,10,59,30.60
2002,12,13,11,00,20.90
2002,12,13,11,01,20.90
2002,12,13,11,02,22.70
2002,12,13,11,03,19.40
2002,12,13,11,04,13.00
2002,12,13,11,05,13.00
2002,12,13,11,06,20.90
2002,12,13,11,07,16.20
2002,12,13,11,08,30.60
2002,12,13,11,09,30.60
2002,12,13,11,10,25.90
2002,12,13,11,11,22.70
2002,12,13,11,12,17.60
2002,12,13,11,13,19.40
2002,12,13,11,14,19.40
2002,12,13,11,15,20.90
2002,12,13,11,16,17.60
2002,12,13,11,17,16.20
2002,12,13,11,18,16.20
2002,12,13,11,19,16.20
2002,12,13,11,20,19.40
2002,12,13,11,21,16.20
2002,12,13,11,22,13.00
2002,12,13,11,23,19.40
2002,12,13,11,24,13.00
2002,12,13,11,25,17.60
2002,12,13,11,26,20.90
2002,12,13,11,27,17.60
2002,12,13,11,28,22.70
2002,12,13,11,29,27.40
2002,12,13,11,30,19.40
2002,12,13,11,31,22.70
2002,12,13,11,32,22.70
2002,12,13,11,33,17.60
2002,12,13,11,34,33.80
2002,12,13,11,35,33.80
2002,12,13,11,36,28.80
2002,12,13,11,37,33.80
2002,12,13,11,38,20.90
2002,12,13,11,39,22.70
2002,12,13,11,40,25.90
2002,12,13,11,41,20.90
2002,12,13,11,42,22.70
2002,12,13,11,43,32.00
2002,12,13,11,44,25.90
2002,12,13,11,45,32.00
2002,12,13,11,46,20.90
2002,12,13,11,47,30.60
2002,12,13,11,48,22.70
2002,12,13,11,49,25.90
2002,12,13,11,50,28.80
2002,12,13,11,51,27.40
2002,12,13,11,52,28.80
2002,12,13,11,53,30.60
2002,12,13,11,54,33.80
2002,12,13,11,55,28.80
2002,12,13,11,56,25.90
2002,12,13,11,57,25.90
2002,12,13,11,58,16.20
2002,12,13,11,59,16.20
2002,12,13,12,00,33.80
2002,12,13,12,01,30.60
2002,12,13,12,02,32.00
2002,12,13,12,03,30.60
2002,12,13,12,04,25.90
2002,12,13,12,05,20.90
2002,12,13,12,06,20.90
2002,12,13,12,07,30.60
2002,12,13,12,08,30.60
2002,12,13,12,09,22.70
2002,12,13,12,10,20.90
2002,12,13,12,11,28.80
2002,12,13,12,12,20.90
2002,12,13,12,13,28.80
2002,12,13,12,14,28.80
2002,12,13,12,15,22.70
2002,12,13,12,16,27.40
2002,12,13,12,17,32.00
2002,12,13,12,18,30.60
2002,12,13,12,19,32.00
2002,12,13,12,20,30.60
2002,12,13,12,21,25.90
2002,12,13,12,22,35.30
2002,12,13,12,23,30.60
2002,12,13,12,24,28.80
2002,12,13,12,25,27.40
2002,12,13,12,26,22.70
2002,12,13,12,27,25.90
2002,12,13,12,28,32.00
2002,12,13,12,29,25.90
2002,12,13,12,30,32.00
2002,12,13,12,31,25.90
2002,12,13,12,32,27.40
2002,12,13,12,33,32.00
2002,12,13,12,34,22.70
2002,12,13,12,35,38.50
2002,12,13,12,36,35.30
2002,12,13,12,37,38.50
2002,12,13,12,38,35.30
2002,12,13,12,39,32.00
2002,12,13,12,40,45.00
2002,12,13,12,41,38.50
2002,12,13,12,42,41.80
2002,12,13,12,43,41.80
2002,12,13,12,44,32.00
2002,12,13,12,45,30.60
2002,12,13,12,46,25.90
2002,12,13,12,47,33.80
2002,12,13,12,48,32.00
2002,12,13,12,49,25.90
2002,12,13,12,50,33.80
2002,12,13,12,51,33.80
2002,12,13,12,52,20.90
2002,12,13,12,53,20.90
2002,12,13,12,54,35.30
2002,12,13,12,55,45.00
2002,12,13,12,56,41.80
2002,12,13,12,57,28.80
2002,12,13,12,58,32.00
2002,12,13,12,59,33.80
2002,12,13,13,00,38.50
2002,12,13,13,01,22.70
2002,12,13,13,02,25.90
2002,12,13,13,03,27.40
2002,12,13,13,04,22.70
2002,12,13,13,05,32.00
2002,12,13,13,06,38.50
2002,12,13,13,07,28.80
2002,12,13,13,08,27.40
2002,12,13,13,09,22.70
2002,12,13,13,10,33.80
2002,12,13,13,11,35.30
2002,12,13,13,12,28.80
2002,12,13,13,13,25.90
2002,12,13,13,14,28.80
2002,12,13,13,15,30.60
2002,12,13,13,16,35.30
2002,12,13,13,17,32.00
2002,12,13,13,18,35.30
2002,12,13,13,19,30.60
2002,12,13,13,20,32.00
2002,12,13,13,21,40.30
2002,12,13,13,22,38.50
2002,12,13,13,23,38.50
2002,12,13,13,24,30.60
2002,12,13,13,25,38.50
2002,12,13,13,26,30.60
2002,12,13,13,27,30.60
2002,12,13,13,28,32.00
2002,12,13,13,29,32.00
2002,12,13,13,30,27.40
2002,12,13,13,31,28.80
2002,12,13,13,32,35.30
2002,12,13,13,33,38.50
2002,12,13,13,34,25.90
2002,12,13,13,35,25.90
2002,12,13,13,36,28.80
2002,12,13,13,37,22.70
2002,12,13,13,38,30.60
2002,12,13,13,39,32.00
2002,12,13,13,40,32.00
2002,12,13,13,41,25.90
2002,12,13,13,42,25.90
2002,12,13,13,43,17.60
2002,12,13,13,44,19.40
2002,12,13,13,45,33.80
2002,12,13,13,46,27.40
2002,12,13,13,47,30.60
2002,12,13,13,48,30.60
2002,12,13,13,49,27.40
2002,12,13,13,50,30.60
2002,12,13,13,51,30.60
2002,12,13,13,52,28.80
2002,12,13,13,53,38.50
2002,12,13,13,54,22.70
2002,12,13,13,55,33.80
2002,12,13,13,56,33.80
2002,12,13,13,57,32.00
2002,12,13,13,58,30.60
2002,12,13,13,59,32.00
2002,12,13,14,00,28.80
2002,12,13,14,01,32.00
2002,12,13,14,02,33.80
2002,12,13,14,03,38.50
2002,12,13,14,04,38.50
2002,12,13,14,05,33.80
2002,12,13,14,06,32.00
2002,12,13,14,07,32.00
2002,12,13,14,08,33.80
2002,12,13,14,09,22.70
2002,12,13,14,10,30.60
2002,12,13,14,11,41.80
2002,12,13,14,12,27.40
2002,12,13,14,13,30.60
2002,12,13,14,14,25.90
2002,12,13,14,15,22.70
2002,12,13,14,16,30.60
2002,12,13,14,17,30.60
2002,12,13,14,18,38.50
2002,12,13,14,19,30.60
2002,12,13,14,20,32.00
2002,12,13,14,21,32.00
2002,12,13,14,22,25.90
2002,12,13,14,23,32.00
2002,12,13,14,24,28.80
2002,12,13,14,25,27.40
2002,12,13,14,26,27.40
2002,12,13,14,27,35.30
2002,12,13,14,28,33.80
2002,12,13,14,29,28.80
2002,12,13,14,30,22.70
2002,12,13,14,31,27.40
2002,12,13,14,32,32.00
2002,12,13,14,33,22.70
2002,12,13,14,34,20.90
2002,12,13,14,35,38.50
2002,12,13,14,36,28.80
2002,12,13,14,37,27.40
2002,12,13,14,38,20.90
2002,12,13,14,39,20.90
2002,12,13,14,40,30.60
2002,12,13,14,41,30.60
2002,12,13,14,42,28.80
2002,12,13,14,43,17.60
2002,12,13,14,44,22.70
2002,12,13,14,45,27.40
2002,12,13,14,46,25.90
2002,12,13,14,47,17.60
2002,12,13,14,48,17.60
2002,12,13,14,49,28.80
2002,12,13,14,50,32.00
2002,12,13,14,51,35.30
2002,12,13,14,52,22.70
2002,12,13,14,53,33.80
2002,12,13,14,54,41.80
2002,12,13,14,55,27.40
2002,12,13,14,56,41.80
2002,12,13,14,57,30.60
2002,12,13,14,58,41.80
2002,12,13,14,59,38.50
2002,12,13,15,00,32.00
2002,12,13,15,01,35.30
2002,12,13,15,02,35.30
2002,12,13,15,03,43.60
2002,12,13,15,04,38.50
2002,12,13,15,05,48.20
2002,12,13,15,06,32.00
2002,12,13,15,07,41.80
2002,12,13,15,08,32.00
2002,12,13,15,09,22.70
2002,12,13,15,10,38.50
2002,12,13,15,11,43.60
2002,12,13,15,12,50.00
2002,12,13,15,13,43.60
2002,12,13,15,14,40.30
2002,12,13,15,15,40.30
2002,12,13,15,16,40.30
2002,12,13,15,17,38.50
2002,12,13,15,18,32.00
2002,12,13,15,19,30.60
2002,12,13,15,20,48.20
2002,12,13,15,21,38.50
2002,12,13,15,22,46.80
2002,12,13,15,23,46.80
2002,12,13,15,24,43.60
2002,12,13,15,25,48.20
2002,12,13,15,26,46.80
2002,12,13,15,27,45.00
2002,12,13,15,28,51.50
2002,12,13,15,29,35.30
2002,12,13,15,30,40.30
2002,12,13,15,31,51.50
2002,12,13,15,32,50.00
2002,12,13,15,33,46.80
2002,12,13,15,34,61.20
2002,12,13,15,35,50.00
2002,12,13,15,36,45.00
2002,12,13,15,37,53.30
2002,12,13,15,38,43.60
2002,12,13,15,39,33.80
2002,12,13,15,40,46.80
2002,12,13,15,41,53.30
2002,12,13,15,42,40.30
2002,12,13,15,43,43.60
2002,12,13,15,44,50.00
2002,12,13,15,45,50.00
2002,12,13,15,46,61.20
2002,12,13,15,47,58.00
2002,12,13,15,48,45.00
2002,12,13,15,49,41.80
2002,12,13,15,50,46.80
2002,12,13,15,51,41.80
2002,12,13,15,52,48.20
2002,12,13,15,53,48.20
2002,12,13,15,54,45.00
2002,12,13,15,55,43.60
2002,12,13,15,56,53.30
2002,12,13,15,57,38.50
2002,12,13,15,58,41.80
2002,12,13,15,59,40.30
2002,12,13,16,00,45.00
2002,12,13,16,01,45.00
2002,12,13,16,02,35.30
2002,12,13,16,03,43.60
2002,12,13,16,04,45.00
2002,12,13,16,05,48.20
2002,12,13,16,06,45.00
2002,12,13,16,07,35.30
2002,12,13,16,08,43.60
2002,12,13,16,09,28.80
2002,12,13,16,10,33.80
2002,12,13,16,11,50.00
2002,12,13,16,12,32.00
2002,12,13,16,13,38.50
2002,12,13,16,14,43.60
2002,12,13,16,15,40.30
2002,12,13,16,16,22.70
2002,12,13,16,17,45.00
2002,12,13,16,18,41.80
2002,12,13,16,19,41.80
2002,12,13,16,20,35.30
2002,12,13,16,21,54.70
2002,12,13,16,22,43.60
2002,12,13,16,23,41.80
2002,12,13,16,24,33.80
2002,12,13,16,25,40.30
2002,12,13,16,26,48.20
2002,12,13,16,27,43.60
2002,12,13,16,28,46.80
2002,12,13,16,29,38.50
2002,12,13,16,30,35.30
2002,12,13,16,31,38.50
2002,12,13,16,32,50.00
2002,12,13,16,33,41.80
2002,12,13,16,34,41.80
2002,12,13,16,35,33.80
2002,12,13,16,36,43.60
2002,12,13,16,37,40.30
2002,12,13,16,38,43.60
2002,12,13,16,39,51.50
2002,12,13,16,40,58.00
2002,12,13,16,41,35.30
2002,12,13,16,42,41.80
2002,12,13,16,43,43.60
2002,12,13,16,44,43.60
2002,12,13,16,45,35.30
2002,12,13,16,46,48.20
2002,12,13,16,47,48.20
2002,12,13,16,48,43.60
2002,12,13,16,49,45.00
2002,12,13,16,50,45.00
2002,12,13,16,51,54.70
2002,12,13,16,52,51.50
2002,12,13,16,53,35.30
2002,12,13,16,54,38.50
2002,12,13,16,55,48.20
2002,12,13,16,56,35.30
2002,12,13,16,57,40.30
2002,12,13,16,58,40.30
2002,12,13,16,59,41.80
2002,12,13,17,00,51.50
2002,12,13,17,01,33.80
2002,12,13,17,02,45.00
2002,12,13,17,03,33.80
2002,12,13,17,04,46.80
2002,12,13,17,05,33.80
2002,12,13,17,06,41.80
2002,12,13,17,07,50.00
2002,12,13,17,08,38.50
2002,12,13,17,09,40.30
2002,12,13,17,10,48.20
2002,12,13,17,11,35.30
2002,12,13,17,12,40.30
2002,12,13,17,13,45.00
2002,12,13,17,14,48.20
2002,12,13,17,15,50.00
2002,12,13,17,16,40.30
2002,12,13,17,17,38.50
2002,12,13,17,18,45.00
2002,12,13,17,19,46.80
2002,12,13,17,20,41.80
2002,12,13,17,21,32.00
2002,12,13,17,22,30.60
2002,12,13,17,23,56.20
2002,12,13,17,24,51.50
2002,12,13,17,25,43.60
2002,12,13,17,26,38.50
2002,12,13,17,27,54.70
2002,12,13,17,28,48.20
2002,12,13,17,29,41.80
2002,12,13,17,30,40.30
2002,12,13,17,31,41.80
2002,12,13,17,32,41.80
2002,12,13,17,33,50.00
2002,12,13,17,34,53.30
2002,12,13,17,35,45.00